Flag for U.S.A. Weather past 2 weeks in Fort Worth, Texas, U.S.A.

Now
91 °F

Passing clouds.


Feels Like: 94 °F
Forecast: 75 / 96 °F
Wind: 5 mph from East

Location: Meacham International Airport

Current Time: Jul 23, 2014 at 2:15:47 PM

Latest Report: Jul 23, 2014 at 12:53 PM


Visibility: 10 mi

Pressure: 30.06 "Hg

Humidity: 45%

Dew point: 67 °F

Location of Fort WorthLocation

Historic Weather in Fort Worth — Graph

°F

Fort Worth temperature yesterday

Maximum temperature yesterday: 95 °F (at 6:53 PM)
Minimum temperature yesterday: 78 °F (at 6:53 AM)
Average temperature yesterday: 85 °F

Past Weeks' High & Low Weather Summary

 TemperatureHumidityPressure
High101 °F (Jul 14, 1:53 PM)94% (Jul 17, 11:53 AM)30.14 "Hg (Jul 17, 11:53 AM)
Low65 °F (Jul 18, 6:53 AM)25% (Jul 12, 12:53 PM)29.83 "Hg (Jul 16, 6:53 PM)
Average83 °F59%29.98 "Hg
* Reported Jul 8 12:53 PM — Jul 23 12:53 PM, Fort Worth, Weather by CustomWeather, © 2014

Note: Actual official high and low records may vary slightly from our data, if they occured in-between our weather recording intervals... More about our weather records

Advertising

Fort Worth weather history for previous 24 hours

 ConditionsComfort  
Time TempWeatherWind HumidityBarometerVisibility
12:53 PM
Jul 23
91 °FPassing clouds.5 mph45%30.06 "Hg10 mi
11:53 AM90 °FSunny.6 mph52%30.07 "Hg10 mi
10:53 AM86 °FPassing clouds.No wind59%30.08 "Hg7 mi
9:53 AM85 °FSunny.3 mph61%30.08 "Hg7 mi
8:53 AM82 °FSunny.3 mph70%30.08 "Hg6 mi
7:53 AM79 °FSunny.No wind79%30.07 "Hg5 mi
6:53 AM77 °FClear.No wind79%30.06 "Hg5 mi
5:53 AM79 °FClear.No wind74%30.05 "Hg7 mi
4:53 AM79 °FClear.3 mph74%30.04 "Hg8 mi
3:53 AM79 °FClear.5 mph72%30.04 "Hg9 mi
2:53 AM80 °FClear.5 mph71%30.03 "Hg9 mi
12:53 AM83 °FClear.6 mph65%30.03 "Hg8 mi
11:53 PM
Jul 22
84 °FClear.6 mph63%30.03 "Hg8 mi
10:53 PM86 °FClear.6 mph59%30.03 "Hg9 mi
9:53 PM88 °FClear.9 mph54%30.00 "Hg10 mi
8:53 PM91 °FSunny.8 mph50%29.99 "Hg10 mi
7:53 PM94 °FSunny.8 mph41%29.98 "Hg10 mi
6:53 PM95 °FPassing clouds.12 mph40%29.97 "Hg10 mi
Weather by CustomWeather, © 2014

See weather overviewHow to use our weather pages